sat.trackr.live / text

‹ back to catalog

STARLINK-11509 [DTC]

NORAD 63059 · 2025-035H

PAYLOAD ACTIVE UNKNOWN

§ Identity

Operator
Country
US
Launch date
2025-02-21
Launch site
AFETR
Launch vehicle
Mass (kg)
RCS (m²)

Purposes: comms

External: N2YO · Heavens-Above · Gunter

§ Orbital elements

Epoch: 2026-05-24T18:28:02.001504Z

Period
91.67 min
Inclination
42.9997°
Eccentricity
0.0001593
Mean motion
15.70847629 rev/d
Perigee alt
355.4 km
Apogee alt
357.5 km
Semi-major
6,734.6 km
B*
1.1556e-3
RAAN
276.9888°
Arg perigee
253.5426°
Mean anomaly
106.5267°
Rev number
7,306

§ Raw data

STARLINK-11509 [DTC]1 63059U 25035H   26144.76946761  .00150596  00000+0  11556-2 0  99962 63059  42.9997 276.9888 0001593 253.5426 106.5267 15.70847629 73060

JSON: /api/v1/satellites/63059 · /tle

For live sub-satellite position, see the globe view (requires WebGL).

§ Visibility from observer

Set your observer location to see the next 7 days of passes ≥ 10°. The values pass through the URL so the page stays shareable.

No JS? Fill the form by hand. The geolocation button needs JavaScript.